This is the latest recevied weather packets stored in our database for station/object VK4RM-13. If no packets are shown the sender has not sent any weather packets the latest 10 day(s).
| Time | Temp. | Humidity | Pressure | Rain* | Wind** | Luminosity | Snow |
|---|---|---|---|---|---|---|---|
| 1777699007 | 26.67° C | 56% | 994.9 hPa | 0 mm | - | - | - |
| 1777698407 | 26.11° C | 58% | 995 hPa | 0 mm | - | - | - |
| 1777697807 | 27.22° C | 56% | 995 hPa | 0 mm | - | - | - |
| 1777697207 | 27.22° C | 55% | 995.1 hPa | 0 mm | - | - | - |
| 1777696607 | 27.78° C | 54% | 995.1 hPa | 0 mm | - | - | - |
| 1777696007 | 27.78° C | 56% | 995.1 hPa | 0 mm | - | - | - |
| 1777695407 | 27.22° C | 58% | 995.2 hPa | 0 mm | - | - | - |
| 1777694807 | 26.67° C | 59% | 995.2 hPa | 0 mm | - | - | - |
| 1777694208 | 26.11° C | 58% | 995.4 hPa | 0 mm | - | - | - |
| 1777693607 | 27.22° C | 57% | 995.4 hPa | 0 mm | - | - | - |
| 1777693007 | 27.78° C | 55% | 995.5 hPa | 0 mm | - | - | - |
| 1777692407 | 27.78° C | 56% | 995.6 hPa | 0 mm | - | - | - |
| 1777691807 | 28.33° C | 57% | 995.7 hPa | 0 mm | - | - | - |
| 1777691207 | 27.78° C | 58% | 995.9 hPa | 0 mm | - | - | - |
| 1777690611 | 27.78° C | 59% | 996.1 hPa | 0 mm | - | - | - |
| 1777690007 | 28.33° C | 59% | 996.2 hPa | 0 mm | - | - | - |
| 1777689407 | 27.22° C | 61% | 996.4 hPa | 0 mm | - | - | - |
| 1777688807 | 27.22° C | 59% | 996.4 hPa | 0 mm | - | - | - |
| 1777688207 | 27.22° C | 63% | 996.7 hPa | 0 mm | - | - | - |
| 1777687607 | 27.22° C | 61% | 996.8 hPa | 0 mm | - | - | - |
| 1777687007 | 27.22° C | 61% | 997 hPa | 0 mm | - | - | - |
| 1777686407 | 27.22° C | 63% | 997.2 hPa | 0 mm | - | - | - |
| 1777685807 | 26.67° C | 63% | 997.4 hPa | 0 mm | - | - | - |
| 1777685207 | 26.67° C | 64% | 997.6 hPa | 0 mm | - | - | - |
| 1777684607 | 25.56° C | 65% | 997.8 hPa | 0 mm | - | - | - |
* Rain latest hour (hover to see other rain measurements)
** Current wind speed in m/s (hover to see current wind gust speed)